Wolf Point, MT

4:43 AM MDT on April 29, 2017 (GMT -0600)
Clayton

Weather History for KOLF - February, 2013

Change the Weather History Date:

Thursday, February 14, 2013

  Actual Average Record
Temperature  
Mean Temperature 22 °F -  
Max Temperature 32 °F 30 °F 46 °F (2016)
Min Temperature 11 °F 5 °F -27 °F (2007)
Degree Days  
Heating Degree Days 43    
Cooling Degree Days 0    
Moisture  
Dew Point 18 °F    
Average Humidity 75    
Maximum Humidity 84    
Minimum Humidity 69    
Precipitation  
Precipitation T in 0.00 in 0.03 in (2012)
Month to date precipitation 0.09 0.07  
Year to date precipitation 0.20 0.38  
Sea Level Pressure  
Sea Level Pressure 30.32 in    
Wind  
Wind Speed 15 mph (NW)    
Max Wind Speed 23 mph    
Max Gust Speed 36 mph    
Visibility 10 miles    
Events      
T = Trace of Precipitation, MM = Missing Value Source: NWS Daily Summary

Daily Weather History Graph

Daily Weather History Graph

Search for Another Location

Airport or City:

Trip Planner

Search our weather history database for the weather conditions in past years. The results will help you decide how hot, cold, wet, or windy it might be!

Date:

Astronomy

Feb. 14, 2013 Rise Set
Actual Time 7:09 AM MST 5:23 PM MST
Civil Twilight 6:37 AM MST 5:55 PM MST
Nautical Twilight 6:01 AM MST 6:32 PM MST
Astronomical Twilight 5:25 AM MST 7:08 PM MST
Moon 8:47 AM MST (2/14) 10:57 PM MST (2/14)
Length of Visible Light 11h 17m
Length of Day
10h 13m
Waxing Crescent, 22% of the Moon is Illuminated
Feb 14
Waxing Crescent
Feb 17
First Quarter
Feb 25
Full
Mar 4
Last Quarter
Mar 11
New

Hourly Weather History & Observations

Time (MST) Temp. Windchill Dew Point Humidity Pressure Visibility Wind Dir Wind Speed Gust Speed Precip Events Conditions
12:53 AM 30.9 °F 18.1 °F 25.0 °F 79% 29.99 in 10.0 mi WNW 21.9 mph - 0.00 in   Overcast
1:41 AM 30.2 °F 16.8 °F 23.0 °F 75% 29.98 in 10.0 mi NNW 23.0 mph 35.7 mph N/A   Overcast
1:53 AM 28.9 °F 15.8 °F 21.9 °F 75% 30.06 in 10.0 mi NNW 20.7 mph 27.6 mph N/A   Mostly Cloudy
2:53 AM 28.0 °F 14.6 °F 21.9 °F 78% 30.13 in 10.0 mi NNW 20.7 mph 29.9 mph N/A   Clear
3:53 AM 26.1 °F 16.2 °F 19.9 °F 78% 30.18 in 10.0 mi North 10.4 mph - N/A   Overcast
4:53 AM 26.1 °F 15.6 °F 19.9 °F 78% 30.24 in 10.0 mi NW 11.5 mph - N/A   Overcast
5:53 AM 25.0 °F 16.3 °F 19.9 °F 81% 30.28 in 10.0 mi WNW 8.1 mph - N/A   Overcast
6:53 AM 25.0 °F 16.3 °F 19.0 °F 78% 30.30 in 10.0 mi WNW 8.1 mph - N/A   Overcast
7:53 AM 24.1 °F 14.4 °F 18.0 °F 77% 30.35 in 10.0 mi West 9.2 mph - N/A   Overcast
8:53 AM 25.0 °F 15.5 °F 19.9 °F 81% 30.35 in 9.0 mi WNW 9.2 mph - N/A   Overcast
9:53 AM 27.0 °F 16.1 °F 19.9 °F 75% 30.36 in 10.0 mi NW 12.7 mph - N/A   Mostly Cloudy
10:53 AM 28.0 °F 18.1 °F 19.9 °F 72% 30.37 in 10.0 mi WNW 11.5 mph - N/A   Overcast
11:53 AM 28.0 °F 17.0 °F 21.0 °F 75% 30.39 in 10.0 mi NW 13.8 mph - N/A   Overcast
12:53 PM 28.9 °F 19.2 °F 21.0 °F 72% 30.38 in 10.0 mi NNW 11.5 mph - N/A   Overcast
1:53 PM 28.0 °F 16.5 °F 21.0 °F 75% 30.38 in 10.0 mi WNW 15.0 mph - N/A   Overcast
2:43 PM 28.4 °F 17.5 °F 21.2 °F 74% 30.30 in 10.0 mi WNW 13.8 mph - N/A   Overcast
2:53 PM 28.0 °F 16.1 °F 21.0 °F 75% 30.40 in 10.0 mi WNW 16.1 mph - N/A   Overcast
3:53 PM 27.0 °F 15.2 °F 18.0 °F 69% 30.40 in 10.0 mi NW 15.0 mph - N/A   Overcast
4:44 PM 26.6 °F 13.8 °F 17.6 °F 69% 30.31 in 10.0 mi NW 17.3 mph - N/A   Overcast
4:53 PM 26.1 °F 13.1 °F 17.1 °F 69% 30.41 in 10.0 mi NW 17.3 mph - N/A   Overcast
5:53 PM 24.1 °F 13.1 °F 16.0 °F 71% 30.42 in 10.0 mi NW 11.5 mph - N/A   Overcast
6:32 PM 24.8 °F 14.0 °F 15.8 °F 69% 30.32 in 10.0 mi NW 11.5 mph - N/A   Overcast
6:53 PM 24.1 °F 12.5 °F 15.1 °F 69% 30.43 in 10.0 mi NW 12.7 mph - N/A   Overcast
7:13 PM 21.2 °F 11.7 °F 14.0 °F 74% 30.32 in 10.0 mi NNW 8.1 mph - N/A   Scattered Clouds
7:53 PM 19.0 °F 9.0 °F 12.9 °F 77% 30.43 in 10.0 mi West 8.1 mph - N/A   Clear
8:53 PM 19.0 °F 10.0 °F 12.0 °F 74% 30.42 in 10.0 mi West 6.9 mph - N/A   Clear
9:53 PM 15.1 °F 7.7 °F 10.0 °F 80% 30.42 in 10.0 mi WNW 4.6 mph - N/A   Clear
10:53 PM 12.9 °F 3.8 °F 9.0 °F 84% 30.42 in 10.0 mi West 5.8 mph - N/A   Clear
11:53 PM 12.0 °F 2.7 °F 8.1 °F 84% 30.42 in 10.0 mi SW 5.8 mph - N/A   Scattered Clouds